Regional Weather Roundup
Issued by NWS

Home | Current Version | Previous Version | Graphics & Text | Print | Product List | Glossary Off
Versions: 1 2 3 4 5 6 7 8 9 10 11 12 13 14 15 16 17 18 19 20 21 22 23 24 25 26 27 28 29 30 31 32 33 34 35 36 37 38 39 40 41 42 43 44 45 46 47 48 49 50

000
ASUS43 KTOP 211408
RWRKS

WEATHER ROUNDUP FOR KANSAS
NATIONAL WEATHER SERVICE GOODLAND KS
900 AM CDT SAT OCT 21 2017

NOTE:  "FAIR" INDICATES FEW OR NO CLOUDS BELOW 12,000 FEET WITH NO
SIGNIFICANT WEATHER AND/OR OBSTRUCTIONS TO VISIBILITY.

KSZ001>006-013>018-027>032-041>047-211500-
NORTHWEST KANSAS

CITY           SKY/WX    TMP DP  RH WIND       PRES   REMARKS
GOODLAND       CLOUDY    52  22  30 N28G44    29.79R
HAYS           CLOUDY    64  59  83 SW16G24   29.69R
HILL CITY      SUNNY     59  39  47 NW15G23   29.69R
RUSSELL        PTSUNNY   66  63  90 S20G30    29.65R
$$

KSZ061>065-074>080-084>089-211500-
SOUTHWEST KANSAS

CITY           SKY/WX    TMP DP  RH WIND       PRES   REMARKS
DODGE CITY     SUNNY     61  57  87 SW13      29.74R
ELKHART          N/A     54  43  67 NW15        N/A
GARDEN CITY    CLOUDY    57  38  48 N17       29.76R
GREAT BEND     PTSUNNY   66  61  84 S18       29.70R
LIBERAL        MOSUNNY   60  54  80 W13       29.76R
PRATT          CLOUDY    66  60  80 S25G31    29.72R
$$

KSZ066>073-081>083-090>101-211500-
SOUTHEAST KANSAS

CITY           SKY/WX    TMP DP  RH WIND       PRES   REMARKS
CHANUTE        CLOUDY    67  61  81 S23G30    29.86S
COFFEYVILLE    CLOUDY    68  63  84 S14G21    29.87S
HUTCHINSON     CLOUDY    70  64  81 S28G35    29.72R
MEDICINE LODGE   N/A     68  61  78 S14G23    29.73R
NEWTON         CLOUDY    68  63  84 S25G31    29.75R
PARSONS        CLOUDY    67  61  81 S9        29.88S
WICHITA INTL   CLOUDY    68  65  90 S24G35    29.76R
WICHITA JABRA  CLOUDY    68  64  87 S23G32    29.77R
WICHITA MCCONL CLOUDY    68  63  83 S23G32    29.77R
WINFIELD       PTSUNNY   68  65  90 S18G28    29.81R
$$

KSZ007>012-019>026-033>040-048>060-102>105-211500-
NORTHEAST KANSAS

CITY           SKY/WX    TMP DP  RH WIND       PRES   REMARKS
CONCORDIA      LGT RAIN  69  63  81 S22G33    29.65R
EMPORIA        CLOUDY    66  61  84 S23G33    29.78R
LAWRENCE       CLOUDY    67  61  81 S21G32    29.81R
MANHATTAN      PTSUNNY   69  62  78 S20G29    29.70R
MARYSVILLE     CLOUDY    68  63  83 S21G35    29.66S
OLATHE IND     CLOUDY    65  59  81 S17G25    29.84S
OLATHE EXE     CLOUDY    63  58  83 S20G28    29.85R
SALINA         PTSUNNY   72  64  76 S28G43    29.67R
TOPEKA BILLARD CLOUDY    68  62  81 S21G32    29.76R
TOPEKA FORBES  CLOUDY    68  62  81 S21G29    29.78R
$$




USA.gov is the U.S. government's official web portal to all federal, state and local government web resources and services.